Location: Stanford
(52.2833°N, 2.4333°W)
Time: 23:27:20
(UTC+00:00)

CZ-2C R/B - Pass Details

Date: 22 January 2021
Orbit: 704 x 908 km, 98.1° (Epoch: 01 March)

Event Time Altitude Azimuth Distance (km) Brightness Sun altitude
Rises 17:19:38 0° 135° (SE) 3,330 6.1 -6.3°
Reaches altitude 10° 17:22:03 10° 128° (SE) 2,433 5.3 -6.7°
Maximum altitude 17:26:59 37° 62° (ENE) 1,312 3.7 -7.4°
Drops below altitude 10° 17:32:09 10° 357° (N) 2,556 5.5 -8.1°
Sets 17:34:46 0° 350° (N) 3,519 6.3 -8.5°
